Hourly Data Report for October 25, 2015

All times are specified in Local Standard Time (LST). Add 1 hour to adjust for Daylight Saving Time where and when it is observed.

SAINT JOHN A
NEW BRUNSWICK

45°18'58.000" N
65°53'24.000" W
108.80 m
8104901
71609
YSJ

Download Data

Hourly Data (October 2015)
Hourly Data Report for October 25, 2015
Temp Definition
°C
Dew Point Temp Definition
°C
Rel Hum Definition
%
Wind Dir Definition
10's deg

Wind Spd Definition
km/h
Visibility Definition
km
Stn Press Definition
kPa
Hmdx Definition


Wind Chill Definition


Weather Definition


TIME
00:00 Legend Double Dagger 7.1 2.8 74 18 21 24.1 101.17     LegendNANA
01:00 Legend Double Dagger 7.3 2.6 72 17 29 24.1 101.08     LegendNANA
02:00 Legend Double Dagger 7.7 3.4 74 18 20 24.1 101.05     Cloudy
03:00 Legend Double Dagger 8.1 4.2 76 18 21 24.1 100.95     LegendNANA
04:00 Legend Double Dagger 8.2 4.6 78 17 21 24.1 100.82     LegendNANA
05:00 Legend Double Dagger 8.5 4.7 77 17 21 24.1 100.74     Cloudy
06:00 Legend Double Dagger 8.7 5.5 80 17 19 24.1 100.68     LegendNANA
07:00 Legend Double Dagger 9.1 5.9 80 19 23 24.1 100.60     LegendNANA
08:00 Legend Double Dagger 9.6 6.3 80 18 29 24.1 100.56     Cloudy
09:00 Legend Double Dagger 10.8 6.8 76 18 35 24.1 100.44     LegendNANA
10:00 Legend Double Dagger 11.7 6.9 72 18 28 24.1 100.34     LegendNANA
11:00 Legend Double Dagger 12.1 7.6 74 19 37 24.1 100.35     Cloudy
12:00 Legend Double Dagger 11.8 9.0 83 20 39 24.1 100.25     LegendNANA
13:00 Legend Double Dagger 11.9 9.1 83 20 35 24.1 100.15     LegendNANA
14:00 Legend Double Dagger 11.2 10.4 95 21 36 6.4 100.11     Rain,Fog
15:00 Legend Double Dagger 11.4 10.6 95 21 35 4.8 100.03     Rain,Fog
16:00 Legend Double Dagger 11.1 10.7 97 21 33 4.8 100.02     Rain,Fog
17:00 Legend Double Dagger 11.0 10.6 97 22 26 4.8 100.01     Rain,Fog
18:00 Legend Double Dagger 11.2 10.8 97 23 21 4.8 99.98     Rain,Fog
19:00 Legend Double Dagger 11.2 10.9 98 25 14 4.8 100.05     Rain,Fog
20:00 Legend Double Dagger 11.1 10.7 97 24 12 4.8 100.07     Rain,Fog
21:00 Legend Double Dagger 10.9 10.5 97 24 4 4.8 100.11     Fog
22:00 Legend Double Dagger 10.4 10.0 97 31 9 8.1 100.16     Fog
23:00 Legend Double Dagger 9.5 8.1 91 32 16 24.1 100.23     Cloudy

Notes on Data Quality.

Legend

  • E = Estimated
  • M = Missing
  • NA = Not Available
  • ‡ = Partner data that is not subject to review by the National Climate Archives
Date modified: